Satellite: RS-38 Catalog number: 35869 Epoch time: 11287.06383742 Element set: 789 Inclination: 098.6900 deg RA of node: 340.5943 deg Eccentricity: 0.0005435 Arg of perigee: 052.1372 deg Mean anomaly: 308.0304 deg Mean motion: 14.22024684 rev/day Decay rate: 4.6e-07 rev/day^2 Epoch rev: 10749 Checksum: 308
Satellite: ARISSAT1 Catalog number: 37772 Epoch time: 11287.15592322 Element set: 217 Inclination: 051.6373 deg RA of node: 280.5412 deg Eccentricity: 0.0009019 Arg of perigee: 340.7396 deg Mean anomaly: 111.0950 deg Mean motion: 15.67620984 rev/day Decay rate: 8.6968e-04 rev/day^2 Epoch rev: 1108 Checksum: 302
/EX
participants (1)
-
Ray Hoad